DLH3P KSAN-EDDM

Flight info

Callsign DLH3P
Flight time N/A
Altitude 36000
Route ZZOOO4 MTBAL DCT CADEZ DCT HAKMN/N0482F370 Q73 LAKRR DCT BAWER DCT KU60Q DCT KU72S DCT KD84U DCT KU06W DCT KP18Y DCT SEGAP DCT 57N090W/N0478F390 62N080W DCT BEZED DCT AYROU/M083F390 DCT EPMAN DCT 67N050W 6730N04000W 6730N03000W/M084F410 67N020W 65N010W DCT GUNPA/N0478F410 DCT MITSI P619 BAVTA P992 ATTUS DCT ELSOB DCT ABGUS DCT SODRO/N0452F310 T703 LULAR/N0449F300 T105 LANDU LANDU2B
Aircraft A359/H-SADE2E3GHIJ1J2J3J4J5M1P2RWXYZ/LB1D1

Departure

Time 2026-04-25 23:58
Airport San Diego International Airport (KSAN)

Arrival

Time N/A
Airport Munich Airport (EDDM)
Time Latitude Longitude Altitude Speed Heading
2026-04-25 23:04 32.73343 -117.20489 20 ft 0 kts 84°
2026-04-25 23:42 32.73341 -117.20497 29 ft 4 kts 105°
2026-04-25 23:42 32.73346 -117.20511 29 ft 2 kts 100°
2026-04-25 23:42 32.73349 -117.20538 27 ft 4 kts 89°
2026-04-25 23:42 32.73346 -117.20568 26 ft 4 kts 69°
2026-04-25 23:43 32.73335 -117.20594 28 ft 4 kts 49°
2026-04-25 23:43 32.73316 -117.20617 27 ft 2 kts 44°
2026-04-25 23:43 32.73312 -117.20622 27 ft 0 kts 44°
2026-04-25 23:48 32.73330 -117.20601 26 ft 8 kts 45°
2026-04-25 23:48 32.73393 -117.20565 29 ft 11 kts
2026-04-25 23:48 32.73454 -117.20555 29 ft 7 kts 17°
2026-04-25 23:49 32.73497 -117.20524 29 ft 8 kts 41°
2026-04-25 23:49 32.73539 -117.20474 29 ft 9 kts 47°
2026-04-25 23:49 32.73582 -117.20409 29 ft 11 kts 64°
2026-04-25 23:49 32.73579 -117.20322 29 ft 11 kts 102°
2026-04-25 23:50 32.73557 -117.20225 29 ft 13 kts 105°
2026-04-25 23:50 32.73533 -117.20122 29 ft 14 kts 105°
2026-04-25 23:50 32.73505 -117.20006 29 ft 15 kts 106°
2026-04-25 23:50 32.73475 -117.19884 29 ft 16 kts 106°
2026-04-25 23:51 32.73442 -117.19752 29 ft 17 kts 107°
2026-04-25 23:51 32.73407 -117.19613 29 ft 18 kts 106°
2026-04-25 23:51 32.73372 -117.19464 29 ft 19 kts 105°
2026-04-25 23:51 32.73334 -117.19306 28 ft 20 kts 106°
2026-04-25 23:52 32.73295 -117.19142 29 ft 21 kts 106°
2026-04-25 23:52 32.73253 -117.18971 29 ft 22 kts 106°
2026-04-25 23:52 32.73210 -117.18794 29 ft 23 kts 106°
2026-04-25 23:52 32.73167 -117.18613 29 ft 23 kts 106°
2026-04-25 23:53 32.73121 -117.18426 28 ft 24 kts 106°
2026-04-25 23:53 32.73074 -117.18233 28 ft 25 kts 106°
2026-04-25 23:53 32.73026 -117.18033 28 ft 25 kts 106°
2026-04-25 23:53 32.72989 -117.17885 28 ft 11 kts 107°
2026-04-25 23:54 32.72970 -117.17813 28 ft 4 kts 107°
2026-04-25 23:54 32.72969 -117.17810 28 ft 0 kts 108°
2026-04-25 23:54 32.72969 -117.17809 28 ft 1 kts 108°
2026-04-25 23:54 32.72964 -117.17789 28 ft 4 kts 107°
2026-04-25 23:55 32.72954 -117.17754 28 ft 5 kts 106°
2026-04-25 23:55 32.72951 -117.17713 28 ft 0 kts 88°
2026-04-25 23:56 32.72954 -117.17698 35 ft 6 kts 76°
2026-04-25 23:57 32.72979 -117.17619 28 ft 12 kts 54°
2026-04-25 23:57 32.73024 -117.17602 28 ft 2 kts 310°
2026-04-25 23:57 32.73026 -117.17613 28 ft 0 kts 289°
2026-04-25 23:57 32.73030 -117.17626 28 ft 10 kts 289°
2026-04-25 23:58 32.73113 -117.17968 28 ft 78 kts 286°
2026-04-25 23:58 32.73326 -117.18849 28 ft 140 kts 285°
2026-04-25 23:58 32.73635 -117.20081 392 ft 161 kts 288°
2026-04-25 23:58 32.73995 -117.21313 1225 ft 157 kts 290°
2026-04-25 23:59 32.74456 -117.22492 1840 ft 159 kts 294°
2026-04-25 23:59 32.74909 -117.23702 2172 ft 163 kts 291°
2026-04-25 23:59 32.75238 -117.25026 2446 ft 172 kts 278°
2026-04-25 23:59 32.75087 -117.26482 2694 ft 186 kts 249°
2026-04-26 00:00 32.74389 -117.27839 2970 ft 203 kts 229°
2026-04-26 00:00 32.73206 -117.28821 3203 ft 222 kts 202°
2026-04-26 00:00 32.71645 -117.28993 3690 ft 230 kts 171°
2026-04-26 00:00 32.70102 -117.28318 4247 ft 237 kts 158°
2026-04-26 00:01 32.68620 -117.27500 4733 ft 242 kts 158°
2026-04-26 00:01 32.67065 -117.26659 5305 ft 245 kts 158°
2026-04-26 00:01 32.65498 -117.25828 5853 ft 248 kts 159°
2026-04-26 00:01 32.64011 -117.24774 6389 ft 254 kts 140°
2026-04-26 00:02 32.63021 -117.23016 6829 ft 267 kts 111°
2026-04-26 00:02 32.62683 -117.20791 7148 ft 282 kts 97°
2026-04-26 00:02 32.62515 -117.18434 7590 ft 289 kts 97°
2026-04-26 00:02 32.62333 -117.16053 8071 ft 295 kts 98°
2026-04-26 00:03 32.62130 -117.13634 8542 ft 300 kts 99°
2026-04-26 00:03 32.61977 -117.11157 9050 ft 306 kts 92°
2026-04-26 00:03 32.62392 -117.08651 9555 ft 314 kts 72°
2026-04-26 00:03 32.63190 -117.06206 10037 ft 320 kts 70°
2026-04-26 00:04 32.64034 -117.03714 10302 ft 333 kts 70°
2026-04-26 00:04 32.64898 -117.01117 10534 ft 346 kts 70°
2026-04-26 00:04 32.65794 -116.98399 10751 ft 359 kts 70°
2026-04-26 00:04 32.66561 -116.95532 10956 ft 369 kts 83°
2026-04-26 00:05 32.66769 -116.92489 11212 ft 377 kts 92°
2026-04-26 00:05 32.66826 -116.89365 11457 ft 386 kts 93°
2026-04-26 00:05 32.66882 -116.86156 11759 ft 394 kts 93°
2026-04-26 00:05 32.66949 -116.82899 12190 ft 398 kts 93°
2026-04-26 00:06 32.67227 -116.79606 12642 ft 407 kts 81°
2026-04-26 00:06 32.68333 -116.76478 13142 ft 414 kts 58°
2026-04-26 00:06 32.70281 -116.73977 13653 ft 414 kts 35°
2026-04-26 00:06 32.72778 -116.72368 14139 ft 409 kts 18°
2026-04-26 00:07 32.75416 -116.71136 14605 ft 408 kts 17°
2026-04-26 00:07 32.78076 -116.69896 15097 ft 409 kts 17°
2026-04-26 00:07 32.80686 -116.68653 15564 ft 410 kts 18°
2026-04-26 00:07 32.83332 -116.67376 16060 ft 411 kts 18°
2026-04-26 00:08 32.85967 -116.66094 16553 ft 411 kts 18°
2026-04-26 00:08 32.88614 -116.64802 17055 ft 411 kts 18°
2026-04-26 00:08 32.91269 -116.63500 17570 ft 411 kts 18°
2026-04-26 00:08 32.93938 -116.62193 17867 ft 418 kts 18°
2026-04-26 00:09 32.96657 -116.60863 18097 ft 426 kts 18°
2026-04-26 00:09 32.99422 -116.59506 18298 ft 433 kts 18°
2026-04-26 00:09 33.02234 -116.58124 18466 ft 441 kts 18°
2026-04-26 00:09 33.05068 -116.56660 18665 ft 448 kts 19°
2026-04-26 00:10 33.07888 -116.55168 18929 ft 451 kts 20°
2026-04-26 00:10 33.10770 -116.53646 19206 ft 454 kts 20°
2026-04-26 00:10 33.13674 -116.52118 19478 ft 457 kts 20°
2026-04-26 00:10 33.16508 -116.50630 19749 ft 460 kts 20°
2026-04-26 00:11 33.19438 -116.49091 20060 ft 462 kts 20°
2026-04-26 00:11 33.22389 -116.47542 20346 ft 464 kts 19°
2026-04-26 00:11 33.25356 -116.45985 20646 ft 466 kts 20°
2026-04-26 00:11 33.28329 -116.44425 20935 ft 468 kts 20°
2026-04-26 00:12 33.31315 -116.42856 21221 ft 470 kts 19°
2026-04-26 00:12 33.34322 -116.41276 21491 ft 473 kts 20°
2026-04-26 00:12 33.37270 -116.39624 21750 ft 478 kts 25°
2026-04-26 00:12 33.40033 -116.37367 22021 ft 484 kts 39°
2026-04-26 00:13 33.42318 -116.34416 22333 ft 486 kts 52°
2026-04-26 00:13 33.44324 -116.31137 22603 ft 489 kts 54°
2026-04-26 00:13 33.46294 -116.27812 22902 ft 490 kts 54°
2026-04-26 00:13 33.48273 -116.24482 23138 ft 492 kts 54°
2026-04-26 00:14 33.50269 -116.21128 23328 ft 496 kts 54°
2026-04-26 00:14 33.52249 -116.17805 23530 ft 498 kts 54°
2026-04-26 00:14 33.54289 -116.14386 23766 ft 499 kts 54°
2026-04-26 00:14 33.56289 -116.11032 23981 ft 501 kts 54°
2026-04-26 00:15 33.58313 -116.07638 24197 ft 503 kts 54°
2026-04-26 00:15 33.60442 -116.04295 24395 ft 505 kts 48°
2026-04-26 00:15 33.62839 -116.01217 24645 ft 505 kts 44°
2026-04-26 00:15 33.65345 -115.98255 24879 ft 507 kts 42°
2026-04-26 00:16 33.67911 -115.95336 25104 ft 508 kts 41°
2026-04-26 00:16 33.70495 -115.92429 25353 ft 510 kts 41°
2026-04-26 00:16 33.73086 -115.89509 25582 ft 512 kts 41°
2026-04-26 00:16 33.75681 -115.86561 25801 ft 514 kts 42°
2026-04-26 00:17 33.78276 -115.83592 26026 ft 516 kts 42°
2026-04-26 00:17 33.80840 -115.80641 26263 ft 518 kts 42°
2026-04-26 00:17 33.83439 -115.77637 26498 ft 519 kts 42°
2026-04-26 00:17 33.86044 -115.74620 26722 ft 521 kts 43°
2026-04-26 00:18 33.88661 -115.71587 26949 ft 523 kts 43°
2026-04-26 00:18 33.91290 -115.68537 27155 ft 525 kts 43°
2026-04-26 00:18 33.93927 -115.65476 27414 ft 527 kts 43°
2026-04-26 00:18 33.96566 -115.62410 27666 ft 529 kts 43°
2026-04-26 00:19 33.99219 -115.59326 27907 ft 531 kts 43°
2026-04-26 00:19 34.01848 -115.56267 28145 ft 533 kts 43°
2026-04-26 00:19 34.04512 -115.53165 28404 ft 534 kts 43°
2026-04-26 00:19 34.07190 -115.50045 28633 ft 536 kts 43°
2026-04-26 00:20 34.09869 -115.46920 28892 ft 538 kts 43°
2026-04-26 00:20 34.12566 -115.43770 29148 ft 540 kts 43°
2026-04-26 00:20 34.15273 -115.40608 29376 ft 541 kts 43°
2026-04-26 00:20 34.18140 -115.37672 29643 ft 540 kts 33°
2026-04-26 00:21 34.21330 -115.35316 29879 ft 537 kts 22°
2026-04-26 00:21 34.24788 -115.33675 30065 ft 531 kts 11°
2026-04-26 00:21 34.28331 -115.32693 30266 ft 529 kts
2026-04-26 00:21 34.31947 -115.31898 30476 ft 529 kts
2026-04-26 00:22 34.35587 -115.31183 30682 ft 531 kts
2026-04-26 00:22 34.39253 -115.30494 30906 ft 533 kts
2026-04-26 00:22 34.42917 -115.29804 31084 ft 535 kts
2026-04-26 00:22 34.46603 -115.29098 31285 ft 537 kts
2026-04-26 00:23 34.50296 -115.28376 31474 ft 539 kts
2026-04-26 00:23 34.54007 -115.27640 31692 ft 541 kts
2026-04-26 00:23 34.57731 -115.26894 31865 ft 543 kts
2026-04-26 00:23 34.61421 -115.26152 32073 ft 544 kts
2026-04-26 00:24 34.65145 -115.25399 32368 ft 543 kts
2026-04-26 00:24 34.68867 -115.24645 32614 ft 543 kts
2026-04-26 00:24 34.72601 -115.23891 32847 ft 543 kts
2026-04-26 00:24 34.76328 -115.23139 33111 ft 543 kts
2026-04-26 00:25 34.80052 -115.22386 33366 ft 543 kts
2026-04-26 00:25 34.83775 -115.21634 33612 ft 543 kts
2026-04-26 00:25 34.87514 -115.20879 33857 ft 543 kts
2026-04-26 00:25 34.91231 -115.20126 34101 ft 542 kts
2026-04-26 00:26 34.94948 -115.19372 34358 ft 541 kts
2026-04-26 00:26 34.98611 -115.18629 34603 ft 540 kts
2026-04-26 00:26 35.02314 -115.17877 34847 ft 540 kts
2026-04-26 00:26 35.06014 -115.17125 35078 ft 539 kts
2026-04-26 00:27 35.09716 -115.16373 35313 ft 538 kts
2026-04-26 00:27 35.13402 -115.15623 35534 ft 538 kts
2026-04-26 00:27 35.17105 -115.14869 35759 ft 537 kts
2026-04-26 00:27 35.20786 -115.14118 35984 ft 537 kts
2026-04-26 00:28 35.24470 -115.13367 36203 ft 536 kts
2026-04-26 00:28 35.28089 -115.12628 36412 ft 536 kts
2026-04-26 00:28 35.31783 -115.11873 36627 ft 536 kts
2026-04-26 00:28 35.35457 -115.11122 36762 ft 537 kts
2026-04-26 00:29 35.39164 -115.10367 36777 ft 541 kts
2026-04-26 00:29 35.46571 -115.08500 36775 ft 551 kts 13°
2026-04-26 00:29 35.50123 -115.06653 36772 ft 559 kts 24°
2026-04-26 00:30 35.53332 -115.04053 36774 ft 565 kts 37°